H1 CPF 2 NER 2023 4 7 9 097 01 glonass116 H2 0907001 9116 36111 2023 4 7 0 0 0 2023 4 10 23 45 0 900 1 1 0 0 0 1 H9 10 0 60041 0.00000 0 2814266.464 22944294.277 10810132.805 10 0 60041 900.00000 0 2856959.975 24101960.358 7882620.340 10 0 60041 1800.00000 0 2983919.594 24883920.586 4802166.003 10 0 60041 2700.00000 0 3142552.665 25270681.397 1628529.701 10 0 60041 3600.00000 0 3278080.147 25255777.337 -1576709.320 10 0 60041 4500.00000 0 3336092.422 24845991.858 -4751345.292 10 0 60041 5400.00000 0 3265093.823 24061042.552 -7833752.000 10 0 60041 6300.00000 0 3018927.826 22932743.851 -10764078.662 10 0 60041 7200.00000 0 2558979.806 21503682.064 -13485412.171 10 0 60041 8100.00000 0 1856063.479 19825458.083 -15944883.027 10 0 60041 9000.00000 0 891910.361 17956571.160 -18094693.341 10 0 60041 9900.00000 0 -339801.729 15960032.176 -19893046.859 10 0 60041 10800.00000 0 -1832925.855 13900806.085 -21304962.953 10 0 60041 11700.00000 0 -3568852.354 11843190.243 -22302958.773 10 0 60041 12600.00000 0 -5517045.759 9848237.984 -22867586.348 10 0 60041 13500.00000 0 -7636091.379 7971334.798 -22987814.175 10 0 60041 14400.00000 0 -9875209.329 6260027.982 -22661245.812 10 0 60041 15300.00000 0 -12176174.086 4752200.102 -21894170.994 10 0 60041 16200.00000 0 -14475560.591 3474662.085 -20701447.986 10 0 60041 17100.00000 0 -16707224.067 2442224.290 -19106219.013 10 0 60041 18000.00000 0 -18804910.599 1657283.830 -17139463.836 10 0 60041 18900.00000 0 -20704889.793 1109944.740 -14839399.682 10 0 60041 19800.00000 0 -22348499.573 778665.145 -12250738.784 10 0 60041 20700.00000 0 -23684496.499 631403.311 -9423817.771 10 0 60041 21600.00000 0 -24671112.983 627213.269 -6413615.794 10 0 60041 22500.00000 0 -25277734.876 718221.600 -3278680.705 10 0 60041 23400.00000 0 -25486128.831 851900.682 -79984.659 10 0 60041 24300.00000 0 -25291167.843 973541.066 3120267.952 10 0 60041 25200.00000 0 -24701024.606 1028817.132 6259856.298 10 0 60041 26100.00000 0 -23736824.873 966336.310 9277758.116 10 0 60041 27000.00000 0 -22431775.901 740062.908 12115339.643 10 0 60041 27900.00000 0 -20829807.209 311513.134 14717496.757 10 0 60041 28800.00000 0 -18983781.386 -348372.210 17033724.856 10 0 60041 29700.00000 0 -16953350.568 -1257757.001 19019096.703 10 0 60041 30600.00000 0 -14802548.789 -2422903.558 20635129.588 10 0 60041 31500.00000 0 -12597221.169 -3837673.632 21850525.488 10 0 60041 32400.00000 0 -10402397.176 -5483558.058 22641770.715 10 0 60041 33300.00000 0 -8279717.167 -7330234.319 22993584.224 10 0 60041 34200.00000 0 -6285018.720 -9336629.278 22899206.785 10 0 60041 35100.00000 0 -4466182.277 -11452443.374 22360526.131 10 0 60041 36000.00000 0 -2861324.518 -13620073.503 21388036.205 10 0 60041 36900.00000 0 -1497413.376 -15776855.258 20000631.596 10 0 60041 37800.00000 0 -389360.912 -17857532.015 18225241.151 10 0 60041 38700.00000 0 460369.508 -19796848.875 16096307.643 10 0 60041 39600.00000 0 1061626.642 -21532164.131 13655123.169 10 0 60041 40500.00000 0 1435912.297 -23005970.038 10949032.611 10 0 60041 41400.00000 0 1615228.349 -24168218.182 8030519.984 10 0 60041 42300.00000 0 1640479.077 -24978352.607 4956194.893 10 0 60041 43200.00000 0 1559496.646 -25406965.790 1785698.256 10 0 60041 44100.00000 0 1424773.429 -25437008.091 -1419451.757 10 0 60041 45000.00000 0 1290997.272 -25064499.784 -4597051.339 10 0 60041 45900.00000 0 1212494.183 -24298715.464 -7685417.074 10 0 60041 46800.00000 0 1240686.947 -23161832.691 -10624582.911 10 0 60041 47700.00000 0 1421677.607 -21688059.120 -13357464.636 10 0 60041 48600.00000 0 1794056.614 -19922274.196 -15830969.099 10 0 60041 49500.00000 0 2387031.979 -17918241.857 -17997026.535 10 0 60041 50400.00000 0 3218958.344 -15736468.567 -19813525.816 10 0 60041 51300.00000 0 4296329.138 -13441795.848 -21245134.503 10 0 60041 52200.00000 0 5613275.524 -11100827.443 -22263987.781 10 0 60041 53100.00000 0 7151594.639 -8779298.132 -22850232.920 10 0 60041 54000.00000 0 8881307.421 -6539493.569 -22992418.690 10 0 60041 54900.00000 0 10761724.129 -4437828.281 -22687722.075 10 0 60041 55800.00000 0 12742974.307 -2522682.404 -21942007.680 10 0 60041 56700.00000 0 14767938.398 -832586.871 -20769718.345 10 0 60041 57600.00000 0 16774501.208 605167.770 -19193598.681 10 0 60041 58500.00000 0 18698033.641 1775441.413 -17244256.409 10 0 60041 59400.00000 0 20473999.306 2675636.006 -14959569.585 10 0 60041 60300.00000 0 22040576.966 3315553.166 -12383950.788 10 0 60041 61200.00000 0 23341188.823 3716724.755 -9567482.409 10 0 60041 62100.00000 0 24326828.316 3911245.671 -6564939.806 10 0 60041 63000.00000 0 24958089.306 3940159.252 -3434721.506 10 0 60041 63900.00000 0 25206810.994 3851464.688 -237707.778 10 0 60041 64800.00000 0 25057269.080 3697831.959 2963929.624 10 0 60041 65700.00000 0 24506862.883 3534122.237 6107942.600 10 0 60041 66600.00000 0 23566269.492 3414819.910 9133222.305 10 0 60041 67500.00000 0 22259058.649 3391485.997 11980990.813 10 0 60041 68400.00000 0 20620784.803 3510341.660 14595945.179 10 0 60041 69300.00000 0 18697594.901 3810084.713 16927331.292 10 0 60041 70200.00000 0 16544410.643 4320031.950 18929926.695 10 0 60041 71100.00000 0 14222761.631 5058666.049 20564913.567 10 0 60041 72000.00000 0 11798360.145 6032648.568 21800625.480 10 0 60041 72900.00000 0 9338518.686 7236340.822 22613154.207 10 0 60041 73800.00000 0 6909517.516 8651853.026 22986805.686 10 0 60041 74700.00000 0 4574031.156 10249620.015 22914397.150 10 0 60041 75600.00000 0 2388719.926 11989479.925 22397390.417 10 0 60041 76500.00000 0 402085.448 13822211.358 21445859.310 10 0 60041 77400.00000 0 -1347322.038 15691465.493 20078292.162 10 0 60041 78300.00000 0 -2832271.478 17536013.303 18321233.236 10 0 60041 79200.00000 0 -4037738.432 19292214.833 16208769.818 10 0 60041 80100.00000 0 -4961276.551 20896608.202 13781874.490 10 0 60041 81000.00000 0 -5612858.915 22288510.795 11087614.792 10 0 60041 81900.00000 0 -6014197.026 23412524.417 8178244.974 10 0 60041 82800.00000 0 -6197566.970 24220839.830 5110196.926 10 0 60041 83700.00000 0 -6204192.888 24675244.270 1942989.396 10 0 60041 84600.00000 0 -6082256.412 24748747.636 -1261923.686 10 0 60041 85500.00000 0 -5884616.499 24426758.828 -4442343.547 10 0 60042 0.00000 0 -5666336.339 23707762.447 -7536532.199 10 0 60042 900.00000 0 -5482122.107 22603466.400 -10484411.555 10 0 60042 1800.00000 0 -5383782.484 21138414.514 -13228728.400 10 0 60042 2700.00000 0 -5417816.429 19349078.427 -15716167.998 10 0 60042 3600.00000 0 -5623231.947 17282466.843 -17898390.433 10 0 60042 4500.00000 0 -6029688.584 14994309.357 -19732971.097 10 0 60042 5400.00000 0 -6656042.848 12546890.076 -21184226.818 10 0 60042 6300.00000 0 -7509358.864 10006620.862 -22223911.583 10 0 60042 7200.00000 0 -8584427.028 7441454.832 -22831768.370 10 0 60042 8100.00000 0 -9863812.133 4918247.335 -22995926.372 10 0 60042 9000.00000 0 -11318430.220 2500173.799 -22713135.821 10 0 60042 9900.00000 0 -12908631.185 244311.466 -21988835.633 10 0 60042 10800.00000 0 -14585742.915 -1800514.789 -20837052.282 10 0 60042 11700.00000 0 -16294013.208 -3595533.391 -19280131.428 10 0 60042 12600.00000 0 -17972868.822 -5113399.210 -17348307.059 10 0 60042 13500.00000 0 -19559397.413 -6339082.307 -15079116.031 10 0 60042 14400.00000 0 -20990948.456 -7270235.917 -12516669.012 10 0 60042 15300.00000 0 -22207743.865 -7917029.208 -9710791.723 10 0 60042 16200.00000 0 -23155388.327 -8301452.910 -6716053.188 10 0 60042 17100.00000 0 -23787173.338 -8456128.265 -3590700.024 10 0 60042 18000.00000 0 -24066077.448 -8422670.778 -395518.003 10 0 60042 18900.00000 0 -23966377.977 -8249679.203 2807356.357 10 0 60042 19800.00000 0 -23474805.869 -7990436.114 5955650.295 10 0 60042 20700.00000 0 -22591194.760 -7700418.594 8988170.948 10 0 60042 21600.00000 0 -21328596.784 -7434725.524 11845998.745 10 0 60042 22500.00000 0 -19712860.219 -7245531.295 14473634.316 10 0 60042 23400.00000 0 -17781686.850 -7179674.376 16820076.272 10 0 60042 24300.00000 0 -15583208.721 -7276483.164 18839808.907 10 0 60042 25200.00000 0 -13174144.001 -7565931.188 20493680.953 10 0 60042 26100.00000 0 -10617609.061 -8067199.598 21749658.849 10 0 60042 27000.00000 0 -7980677.928 -8787707.488 22583440.699 10 0 60042 27900.00000 0 -5331790.365 -9722650.841 22978919.865 10 0 60042 28800.00000 0 -2738115.798 -10855069.523 22928490.073 10 0 60042 29700.00000 0 -262981.749 -12156439.689 22433186.869 10 0 60042 30600.00000 0 2036527.545 -13587767.111 21502663.256 10 0 60042 31500.00000 0 4111703.882 -15101136.133 20155000.295 10 0 60042 32400.00000 0 5923992.013 -16641650.017 18416356.369 10 0 60042 33300.00000 0 7446338.320 -18149682.182 16320461.712 10 0 60042 34200.00000 0 8664056.517 -19563344.806 13907967.573 10 0 60042 35100.00000 0 9575175.633 -20821072.040 11225662.090 10 0 60042 36000.00000 0 10190256.976 -21864210.142 8325567.479 10 0 60042 36900.00000 0 10531688.800 -22639506.241 5263935.475 10 0 60042 37800.00000 0 10632489.174 -23101391.412 2100160.091 10 0 60042 38700.00000 0 10534668.108 -23213962.083 -1104371.607 10 0 60042 39600.00000 0 10287218.484 -22952576.181 -4287468.500 10 0 60042 40500.00000 0 9943820.964 -22304996.369 -7387341.159 10 0 60042 41400.00000 0 9560360.156 -21272031.574 -10343800.849 10 0 60042 42300.00000 0 9192357.261 -19867648.995 -13099428.316 10 0 60042 43200.00000 0 8892428.053 -18118550.894 -15600689.512 10 0 60042 44100.00000 0 8707873.924 -16063232.874 -17798976.468 10 0 60042 45000.00000 0 8678508.206 -13750562.085 -19651552.985 10 0 60042 45900.00000 0 8834810.017 -11237933.812 -21122386.780 10 0 60042 46800.00000 0 9196484.166 -8589082.485 -22182851.951 10 0 60042 47700.00000 0 9771488.535 -5871637.581 -22812288.146 10 0 60042 48600.00000 0 10555570.776 -3154525.464 -22998405.574 10 0 60042 49500.00000 0 11532334.754 -505324.616 -22737527.935 10 0 60042 50400.00000 0 12673834.943 2012316.308 -22034668.333 10 0 60042 51300.00000 0 13941674.747 4341090.729 -20903436.416 10 0 60042 52200.00000 0 15288563.510 6432176.888 -19365778.116 10 0 60042 53100.00000 0 16660267.477 8247022.348 -17451552.589 10 0 60042 54000.00000 0 17997873.248 9758696.448 -15197954.091 10 0 60042 54900.00000 0 19240268.800 10952754.959 -12648789.623 10 0 60042 55800.00000 0 20326737.665 11827581.550 -9853626.161 10 0 60042 56700.00000 0 21199556.790 12394192.735 -6866823.985 10 0 60042 57600.00000 0 21806488.196 12675515.658 -3746475.108 10 0 60042 58500.00000 0 22103058.795 12705170.302 -553267.883 10 0 60042 59400.00000 0 22054531.582 12525808.870 2650699.473 10 0 60042 60300.00000 0 21637484.472 12187083.759 5803132.645 10 0 60042 61200.00000 0 20840929.657 11743331.346 8842757.808 10 0 60042 62100.00000 0 19666925.888 11251070.716 11710516.672 10 0 60042 63000.00000 0 18130657.634 10766424.128 14350716.184 10 0 60042 63900.00000 0 16259977.610 10342569.053 16712110.178 10 0 60042 64800.00000 0 14094431.767 10027329.958 18748891.947 10 0 60042 65700.00000 0 11683807.510 9861011.745 20421578.733 10 0 60042 66600.00000 0 9086265.725 9874566.219 21697771.493 10 0 60042 67500.00000 0 6366134.300 10088168.650 22552775.956 10 0 60042 68400.00000 0 3591454.631 10510264.054 22970073.810 10 0 60042 69300.00000 0 831382.546 11137122.993 22941635.723 10 0 60042 70200.00000 0 -1846449.232 11952925.354 22468070.921 10 0 60042 71100.00000 0 -4378498.656 12930368.538 21558611.001 10 0 60042 72000.00000 0 -6707706.600 14031774.647 20230928.606 10 0 60042 72900.00000 0 -8785615.813 15210650.571 18510794.564 10 0 60042 73800.00000 0 -10574129.966 16413635.997 16431579.892 10 0 60042 74700.00000 0 -12046840.980 17582758.180 14033611.933 10 0 60042 75600.00000 0 -13189870.682 18657899.429 11363396.558 10 0 60042 76500.00000 0 -14002192.894 19579374.208 8472720.870 10 0 60042 77400.00000 0 -14495423.511 20290507.923 5417653.282 10 0 60042 78300.00000 0 -14693088.318 20740109.168 2257459.878 10 0 60042 79200.00000 0 -14629400.022 20884731.342 -946542.288 10 0 60042 80100.00000 0 -14347596.531 20690628.155 -4132172.803 10 0 60042 81000.00000 0 -13897910.955 20135320.154 -7237593.427 10 0 60042 81900.00000 0 -13335259.300 19208705.550 -10202508.041 10 0 60042 82800.00000 0 -12716743.723 17913667.663 -12969333.527 10 0 60042 83700.00000 0 -12099077.013 16266152.328 -15484318.679 10 0 60042 84600.00000 0 -11536037.254 14294710.787 -17698589.305 10 0 60042 85500.00000 0 -11076060.381 12039525.981 -19569099.084 10 0 60043 0.00000 0 -10760072.474 9550961.967 -21059467.620 10 0 60043 900.00000 0 -10619653.406 6887694.477 -22140690.148 10 0 60043 1800.00000 0 -10675610.046 4114502.900 -22791703.238 10 0 60043 2700.00000 0 -10937019.004 1299810.250 -22999798.166 10 0 60043 3600.00000 0 -11400780.272 -1486924.123 -22760871.787 10 0 60043 4500.00000 0 -12051700.970 -4177852.616 -22079510.698 10 0 60043 5400.00000 0 -12863106.326 -6709318.595 -20968906.646 10 0 60043 6300.00000 0 -13797952.879 -9024260.035 -19450604.381 10 0 60043 7200.00000 0 -14810397.526 -11074338.020 -17554086.421 10 0 60043 8100.00000 0 -15847756.813 -12821701.936 -15316202.310 10 0 60043 9000.00000 0 -16852774.136 -14240318.267 -12780453.045 10 0 60043 9900.00000 0 -17766099.264 -15316808.089 -9996144.345 10 0 60043 10800.00000 0 -18528875.386 -16050758.974 -7017425.154 10 0 60043 11700.00000 0 -19085324.033 -16454499.195 -3902230.242 10 0 60043 12600.00000 0 -19385218.125 -16552344.762 -711147.910 10 0 60043 13500.00000 0 -19386137.982 -16379352.283 2493764.542 10 0 60043 14400.00000 0 -19055414.277 -15979631.491 5650193.831 10 0 60043 15300.00000 0 -18371675.185 -15404290.001 8696787.710 10 0 60043 16200.00000 0 -17325931.844 -14709098.344 11574351.642 10 0 60043 17100.00000 0 -15922155.866 -13951974.983 14227001.243 10 0 60043 18000.00000 0 -14177324.189 -13190398.411 16603247.749 10 0 60043 18900.00000 0 -12120929.064 -12478856.165 18656995.380 10 0 60043 19800.00000 0 -9793973.455 -11866438.600 20348431.512 10 0 60043 20700.00000 0 -7247493.558 -11394678.831 21644792.870 10 0 60043 21600.00000 0 -4540669.797 -11095729.469 22520993.669 10 0 60043 22500.00000 0 -1738604.483 -10990952.385 22960104.366 10 0 60043 23400.00000 0 1090142.046 -11089980.160 22953672.616 10 0 60043 24300.00000 0 3876155.260 -11390288.081 22501880.989 10 0 60043 25200.00000 0 6551803.208 -11877294.176 21613538.991 10 0 60043 26100.00000 0 9053797.915 -12524982.748 20305909.852 10 0 60043 27000.00000 0 11325576.377 -13297025.150 18604375.545 10 0 60043 27900.00000 0 13319403.615 -14148350.820 16541946.293 10 0 60043 28800.00000 0 14998111.609 -15027102.863 14158623.672 10 0 60043 29700.00000 0 16336402.979 -15876896.350 11500629.137 10 0 60043 30600.00000 0 17321666.201 -16639284.756 8619512.260 10 0 60043 31500.00000 0 17954269.259 -17256331.068 5571155.464 10 0 60043 32400.00000 0 18247320.338 -17673175.490 2414694.040 10 0 60043 33300.00000 0 18225906.272 -17840491.541 -788627.941 10 0 60043 34200.00000 0 17925841.330 -17716726.783 -3976643.771 10 0 60043 35100.00000 0 17391979.385 -17270033.254 -7087469.327 10 0 60043 36000.00000 0 16676160.905 -16479805.463 -10060703.886 10 0 60043 36900.00000 0 15834881.519 -15337760.209 -12838603.039 10 0 60043 37800.00000 0 14926780.676 -13848511.611 -15367200.757 10 0 60043 38700.00000 0 14010056.393 -12029615.822 -17597358.674 10 0 60043 39600.00000 0 13139915.262 -9911082.167 -19485722.111 10 0 60043 40500.00000 0 12366165.251 -7534369.713 -20995564.221 10 0 60043 41400.00000 0 11731052.840 -4950909.796 -22097501.924 10 0 60043 42300.00000 0 11267435.706 -2220214.861 -22770069.727 10 0 60043 43200.00000 0 10997368.016 592348.792 -23000140.299 10 0 60043 44100.00000 0 10931158.082 3418032.712 -22783183.598 10 0 60043 45000.00000 0 11066938.251 6187320.522 -22123359.292 10 0 60043 45900.00000 0 11390765.454 8832576.710 -21033440.454 10 0 60043 46800.00000 0 11877248.409 11290620.435 -19534569.558 10 0 60043 47700.00000 0 12490675.378 13505117.725 -17655851.078 10 0 60043 48600.00000 0 13186595.106 15428692.840 -15433788.142 10 0 60043 49500.00000 0 13913784.346 17024671.181 -12911573.742 10 0 60043 50400.00000 0 14616518.830 18268381.335 -10138250.052 10 0 60043 51300.00000 0 15237051.483 19147962.369 -7167752.124 10 0 60043 52200.00000 0 15718192.671 19664643.203 -4057854.695 10 0 60043 53100.00000 0 16005882.758 19832483.204 -869043.058 10 0 60043 54000.00000 0 16051647.412 19677585.926 2336669.454 10 0 60043 54900.00000 0 15814831.009 19236820.284 5496953.633 10 0 60043 55800.00000 0 15264512.919 18556104.274 8550381.775 10 0 60043 56700.00000 0 14381024.955 17688324.861 11437625.889 10 0 60043 57600.00000 0 13157005.271 16690982.900 14102612.832 10 0 60043 58500.00000 0 11597943.745 15623663.360 16493613.568 10 0 60043 59400.00000 0 9722195.381 14545438.171 18564245.295 10 0 60043 60300.00000 0 7560460.743 13512311.464 20274367.281 10 0 60043 61200.00000 0 5154754.734 12574814.731 21590853.474 10 0 60043 62100.00000 0 2556906.347 11775852.756 22488227.687 10 0 60043 63000.00000 0 -173348.621 11148890.194 22949149.889 10 0 60043 63900.00000 0 -2970603.175 10716554.183 22964745.040 10 0 60043 64800.00000 0 -5766250.916 10489710.746 22534768.902 10 0 60043 65700.00000 0 -8491092.403 10467052.843 21667608.222 10 0 60043 66600.00000 0 -11077968.931 10635216.641 20380115.622 10 0 60043 67500.00000 0 -13464315.628 10969420.502 18697282.495 10 0 60043 68400.00000 0 -15594529.068 11434599.544 16651756.044 10 0 60043 69300.00000 0 -17422052.158 11986987.932 14283209.445 10 0 60043 70200.00000 0 -18911090.694 12576082.456 11637576.771 10 0 60043 71100.00000 0 -20037891.044 13146904.869 8766166.896 10 0 60043 72000.00000 0 -20791526.491 13642467.919 5724672.978 10 0 60043 72900.00000 0 -21174160.091 14006341.237 2572096.247 10 0 60043 73800.00000 0 -21200773.606 14185208.876 -630395.418 10 0 60043 74700.00000 0 -20898374.357 14131310.355 -3820652.102 10 0 60043 75600.00000 0 -20304713.642 13804661.806 -6936746.729 10 0 60043 76500.00000 0 -19466570.900 13174962.800 -9918176.712 10 0 60043 77400.00000 0 -18437675.971 12223107.533 -12707038.862 10 0 60043 78300.00000 0 -17276357.103 10942235.547 -15249154.544 10 0 60043 79200.00000 0 -16043013.751 9338276.442 -17495123.118 10 0 60043 80100.00000 0 -14797520.634 7429964.203 -19401283.052 10 0 60043 81000.00000 0 -13596672.252 5248318.999 -20930562.029 10 0 60043 81900.00000 0 -12491775.326 2835616.527 -22053199.588 10 0 60043 82800.00000 0 -11526490.326 243886.484 -22747328.243 10 0 60043 83700.00000 0 -10735012.748 -2466998.655 -22999401.852 10 0 60043 84600.00000 0 -10140670.448 -5231566.181 -22804462.840 10 0 60043 85500.00000 0 -9754995.976 -7981224.744 -22166242.913 10 0 60044 0.00000 0 -9577312.786 -10646882.416 -21097095.161 10 0 60044 900.00000 0 -9594852.649 -13161594.383 -19617757.803 10 0 60044 1800.00000 0 -9783399.413 -15463127.056 -17756955.258 10 0 60044 2700.00000 0 -10108431.586 -17496336.852 -15550841.896 10 0 60044 3600.00000 0 -10526715.632 -19215261.221 -13042300.185 10 0 60044 4500.00000 0 -10988282.307 -20584836.198 -10280106.141 10 0 60044 5400.00000 0 -11438702.115 -21582168.769 -7317978.279 10 0 60044 6300.00000 0 -11821563.101 -22197311.109 -4213528.701 10 0 60044 7200.00000 0 -12081045.397 -22433504.785 -1027137.151 10 0 60044 8100.00000 0 -12164482.759 -22306885.379 2179229.458 10 0 60044 9000.00000 0 -12024801.734 -21845660.908 5343228.363 10 0 60044 9900.00000 0 -11622734.378 -21088799.629 8403358.684 10 0 60044 10800.00000 0 -10928710.080 -20084283.656 11300161.161 10 0 60044 11700.00000 0 -9924345.774 -18887003.019 13977375.973 10 0 60044 12600.00000 0 -8603471.005 -17556379.836 16383035.723 10 0 60044 13500.00000 0 -6972644.082 -16153823.380 18470472.294 10 0 60044 14400.00000 0 -5051137.025 -14740123.493 20199218.296 10 0 60044 15300.00000 0 -2870389.478 -13372892.040 21535786.038 10 0 60044 16200.00000 0 -472953.853 -12104159.552 22454309.739 10 0 60044 17100.00000 0 2089024.878 -10978227.260 22937039.326 10 0 60044 18000.00000 0 4755732.063 -10029863.744 22974677.168 10 0 60044 18900.00000 0 7461929.746 -9282920.636 22566551.984 10 0 60044 19800.00000 0 10139434.138 -8749424.279 21720627.215 10 0 60044 20700.00000 0 12719722.294 -8429180.248 20453344.029 10 0 60044 21600.00000 0 15136560.849 -8309906.338 18789302.114 10 0 60044 22500.00000 0 17328548.770 -8367887.620 16760784.258 10 0 60044 23400.00000 0 19241469.461 -8569125.499 14407133.547 10 0 60044 24300.00000 0 20830355.360 -8870932.116 11773994.698 10 0 60044 25200.00000 0 22061179.885 -9223902.823 8912433.597 10 0 60044 26100.00000 0 22912106.816 -9574183.626 5877951.567 10 0 60044 27000.00000 0 23374245.485 -9865937.920 2729412.937 10 0 60044 27900.00000 0 23451880.599 -10043908.419 -472093.631 10 0 60044 28800.00000 0 23162167.336 -10055965.883 -3664438.135 10 0 60044 29700.00000 0 22534304.710 -9855536.667 -6785653.656 10 0 60044 30600.00000 0 21608222.050 -9403805.985 -9775138.735 10 0 60044 31500.00000 0 20432833.824 -8671603.078 -12574834.175 10 0 60044 32400.00000 0 19063936.209 -7640887.712 -15130351.244 10 0 60044 33300.00000 0 17561833.756 -6305774.120 -17392029.214 10 0 60044 34200.00000 0 15988795.874 -4673047.869 -19315901.561 10 0 60044 35100.00000 0 14406449.847 -2762152.363 -20864552.019 10 0 60044 36000.00000 0 12873219.734 -604643.902 -22007843.911 10 0 60044 36900.00000 0 11441918.417 1756863.532 -22723508.568 10 0 60044 37800.00000 0 10157593.649 4270221.243 -22997581.471 10 0 60044 38700.00000 0 9055718.119 6875674.483 -22824677.566 10 0 60044 39600.00000 0 8160799.228 9508117.650 -22208100.255 10 0 60044 40500.00000 0 7485466.546 12099583.132 -21159781.697 10 0 60044 41400.00000 0 7030074.942 14581861.011 -19700055.150 10 0 60044 42300.00000 0 6782839.699 16889141.018 -17857263.369 10 0 60044 43200.00000 0 6720497.496 18960567.011 -15667210.153 10 0 60044 44100.00000 0 6809464.968 20742597.616 -13172465.309 10 0 60044 45000.00000 0 7007445.422 22191074.477 -10421536.234 10 0 60044 45900.00000 0 7265415.210 23272911.694 -7467922.165 10 0 60044 46800.00000 0 7529905.052 23967335.802 -4369069.589 10 0 60044 47700.00000 0 7745478.913 24266624.509 -1185249.557 10 0 60044 48600.00000 0 7857304.559 24176313.571 2021620.666 10 0 60044 49500.00000 0 7813705.974 23714863.727 5189187.973 10 0 60044 50400.00000 0 7568588.544 22912802.454 8255881.410 10 0 60044 51300.00000 0 7083633.477 21811377.575 11162113.367 10 0 60044 52200.00000 0 6330167.786 20460780.321 13851440.002 10 0 60044 53100.00000 0 5290630.122 18918013.478 16271657.930 10 0 60044 54000.00000 0 3959569.983 17244495.046 18375815.787 10 0 60044 54900.00000 0 2344137.654 15503498.500 20123121.260 10 0 60044 55800.00000 0 464043.766 13757537.329 21479726.436 10 0 60044 56700.00000 0 -1649010.397 12065803.279 22419376.993 10 0 60044 57600.00000 0 -3952408.642 10481765.062 22923913.508 10 0 60044 58500.00000 0 -6394157.423 9051027.162 22983616.023 10 0 60044 59400.00000 0 -8914821.944 7809537.162 22597386.037 10 0 60044 60300.00000 0 -11449781.148 6782215.256 21772763.017 10 0 60044 61200.00000 0 -13931708.762 5982061.910 20525775.486 10 0 60044 62100.00000 0 -16293178.332 5409779.698 18880629.713 10 0 60044 63000.00000 0 -18469284.995 5053923.959 16869241.860 10 0 60044 63900.00000 0 -20400175.887 4891574.991 14530622.261 10 0 60044 64800.00000 0 -22033384.781 4889502.793 11910123.245 10 0 60044 65700.00000 0 -23325874.378 5005774.868 9058564.424 10 0 60044 66600.00000 0 -24245701.611 5191739.057 6031251.834 10 0 60044 67500.00000 0 -24773236.765 5394297.587 2886909.418 10 0 60044 68400.00000 0 -24901885.661 5558376.232 -313456.830 10 0 60044 69300.00000 0 -24638284.727 5629484.054 -3507740.163 10 0 60044 70200.00000 0 -24001960.751 5556255.279 -6633937.004 10 0 60044 71100.00000 0 -23024469.532 5292865.408 -9631350.005 10 0 60044 72000.00000 0 -21748049.419 4801218.804 -12441766.718 10 0 60044 72900.00000 0 -20223846.138 4052814.507 -15010590.771 10 0 60044 73800.00000 0 -18509783.214 3030210.462 -17287903.455 10 0 60044 74700.00000 0 -16668167.205 1728023.177 -19229434.935 10 0 60044 75600.00000 0 -14763127.950 153419.299 -20797426.187 10 0 60044 76500.00000 0 -12858000.861 -1673923.133 -21961364.979 10 0 60044 77400.00000 0 -11012760.678 -3722383.754 -22698581.560 10 0 60044 78300.00000 0 -9281613.770 -5949477.082 -22994692.572 10 0 60044 79200.00000 0 -7710849.400 -8303394.387 -22843884.498 10 0 60044 80100.00000 0 -6337039.472 -10724947.257 -22249030.966 10 0 60044 81000.00000 0 -5185661.678 -13149832.923 -21221641.412 10 0 60044 81900.00000 0 -4270203.173 -15511127.877 -19781641.671 10 0 60044 82800.00000 0 -3591781.848 -17741906.387 -17956990.339 10 0 60044 83700.00000 0 -3139300.431 -19777875.091 -15783137.877 10 0 60044 84600.00000 0 -2890126.261 -21559913.830 -13302338.517 10 0 60044 85500.00000 0 -2811267.336 -23036416.472 -10562828.094 99